Saginaw Browne, MI

5:14 AM EST on November 20, 2017 (GMT -0500)
Saginaw County-Browne

Weather History for KHYX - January, 2013

Change the Weather History Date:

Friday, January 18, 2013

  Actual Average (KMBS) Record (KMBS)
Temperature  
Mean Temperature 22 °F -  
Max Temperature 33 °F 24 °F 40 °F (2015)
Min Temperature 10 °F 11 °F -5 °F (1997)
Degree Days  
Heating Degree Days 44    
Moisture  
Dew Point 16 °F    
Average Humidity 75    
Maximum Humidity 92    
Minimum Humidity 60    
Precipitation  
Precipitation 0.00 in - - ()
Sea Level Pressure  
Sea Level Pressure 30.18 in    
Wind  
Wind Speed 9 mph (SSW)    
Max Wind Speed 24 mph    
Max Gust Speed 33 mph    
Visibility 10 miles    
Events Snow    
Averages and records for this station are not official NWS values.
T = Trace of Precipitation, MM = Missing Value Source: NWS Daily Summary

Daily Weather History Graph

Daily Weather History Graph

Search for Another Location

Airport or City:

Trip Planner

Search our weather history database for the weather conditions in past years. The results will help you decide how hot, cold, wet, or windy it might be!

Date:

Astronomy

Jan. 18, 2013 Rise Set
Actual Time 8:03 AM EST 5:29 PM EST
Civil Twilight 7:31 AM EST 6:00 PM EST
Nautical Twilight 6:56 AM EST 6:35 PM EST
Astronomical Twilight 6:22 AM EST 7:09 PM EST
Moon 11:26 AM EST (1/18) 12:32 AM EST (1/18)
Length of Visible Light 10h 28m
Length of Day
9h 25m
Waxing Crescent, 47% of the Moon is Illuminated
Jan 18
Waxing Crescent
Jan 18
First Quarter
Jan 26
Full
Feb 3
Last Quarter
Feb 10
New

Hourly Weather History & Observations

Time (EST) Temp. Windchill Dew Point Humidity Pressure Visibility Wind Dir Wind Speed Gust Speed Precip Events Conditions
12:12 AM 15.8 °F 7.2 °F 8.6 °F 73% 30.31 in 10.0 mi WNW 5.8 mph - N/A   Overcast
12:32 AM 15.8 °F 7.2 °F 8.6 °F 73% 30.31 in 10.0 mi WNW 5.8 mph - N/A   Mostly Cloudy
12:52 AM 15.8 °F 7.2 °F 8.6 °F 73% 30.32 in 10.0 mi West 5.8 mph - N/A   Mostly Cloudy
1:12 AM 15.8 °F 7.2 °F 8.6 °F 73% 30.33 in 10.0 mi West 5.8 mph - N/A   Overcast
1:32 AM 15.8 °F 10.2 °F 8.6 °F 73% 30.34 in 10.0 mi West 3.5 mph - N/A   Overcast
1:52 AM 14.0 °F 5.1 °F 10.4 °F 86% 30.34 in 10.0 mi West 5.8 mph - N/A   Overcast
2:13 AM 14.0 °F 5.1 °F 8.6 °F 79% 30.35 in 10.0 mi WSW 5.8 mph - N/A   Scattered Clouds
2:33 AM 15.8 °F 7.2 °F 10.4 °F 79% 30.37 in 10.0 mi West 5.8 mph - N/A   Mostly Cloudy
2:53 AM 15.8 °F 4.2 °F 10.4 °F 79% 30.38 in 10.0 mi West 9.2 mph - N/A   Overcast
3:14 AM 17.6 °F 8.2 °F 8.6 °F 68% 30.38 in 10.0 mi West 6.9 mph - N/A   Overcast
3:34 AM 15.8 °F 6.1 °F 8.6 °F 73% 30.39 in 10.0 mi WNW 6.9 mph - N/A   Overcast
3:54 AM 15.8 °F 8.6 °F 8.6 °F 73% 30.39 in 10.0 mi West 4.6 mph - N/A   Overcast
4:14 AM 14.0 °F 6.5 °F 8.6 °F 79% 30.38 in 10.0 mi West 4.6 mph - N/A   Scattered Clouds
4:34 AM 14.0 °F 8.2 °F 8.6 °F 79% 30.38 in 10.0 mi West 3.5 mph - N/A   Clear
4:54 AM 12.2 °F 2.9 °F 6.8 °F 79% 30.38 in 10.0 mi West 5.8 mph - N/A   Clear
5:14 AM 12.2 °F 4.3 °F 6.8 °F 79% 30.38 in 10.0 mi West 4.6 mph - N/A   Clear
5:34 AM 12.2 °F - 6.8 °F 79% 30.39 in 10.0 mi Calm Calm - N/A   Clear
5:54 AM 12.2 °F - 6.8 °F 79% 30.38 in 10.0 mi Calm Calm - N/A   Clear
6:15 AM 12.2 °F 6.1 °F 6.8 °F 79% 30.39 in 10.0 mi WSW 3.5 mph - N/A   Clear
6:35 AM 12.2 °F 6.1 °F 6.8 °F 79% 30.40 in 10.0 mi WSW 3.5 mph - N/A   Clear
6:55 AM 12.2 °F 6.1 °F 6.8 °F 79% 30.40 in 10.0 mi SW 3.5 mph - N/A   Clear
7:15 AM 10.4 °F - 6.8 °F 85% 30.39 in 10.0 mi Calm Calm - N/A   Clear
7:35 AM 10.4 °F 2.2 °F 8.6 °F 92% 30.39 in 10.0 mi South 4.6 mph - N/A   Clear
7:55 AM 10.4 °F 4.0 °F 6.8 °F 85% 30.39 in 10.0 mi South 3.5 mph - N/A   Clear
8:15 AM 10.4 °F 4.0 °F 6.8 °F 85% 30.38 in 10.0 mi South 3.5 mph - N/A   Clear
8:35 AM 10.4 °F 2.2 °F 8.6 °F 92% 30.38 in 10.0 mi SSE 4.6 mph - N/A   Scattered Clouds
8:55 AM 12.2 °F 4.3 °F 8.6 °F 85% 30.38 in 10.0 mi SSE 4.6 mph - N/A   Scattered Clouds
9:15 AM 14.0 °F 5.1 °F 10.4 °F 86% 30.38 in 10.0 mi SSE 5.8 mph - N/A   Clear
9:31 AM 14.0 °F 6.5 °F 10.4 °F 86% 30.38 in 10.0 mi South 4.6 mph - N/A   Scattered Clouds
9:51 AM 17.6 °F 8.2 °F 10.4 °F 73% 30.39 in 10.0 mi South 6.9 mph - N/A   Mostly Cloudy
10:11 AM 17.6 °F 8.2 °F 10.4 °F 73% 30.37 in 10.0 mi South 6.9 mph - N/A   Overcast
10:31 AM 17.6 °F 7.3 °F 12.2 °F 79% 30.37 in 10.0 mi South 8.1 mph - N/A   Overcast
10:51 AM 19.4 °F 8.6 °F 12.2 °F 74% 30.36 in 10.0 mi South 9.2 mph - N/A   Overcast
11:11 AM 21.2 °F 10.1 °F 14.0 °F 74% 30.34 in 10.0 mi South 10.4 mph - N/A   Mostly Cloudy
11:31 AM 21.2 °F 9.5 °F 14.0 °F 74% 30.32 in 10.0 mi South 11.5 mph - N/A   Mostly Cloudy
11:51 AM 23.0 °F 10.6 °F 14.0 °F 68% 30.30 in 10.0 mi South 13.8 mph - N/A   Scattered Clouds
12:11 PM 23.0 °F 11.1 °F 15.8 °F 74% 30.28 in 10.0 mi SSW 12.7 mph - N/A   Mostly Cloudy
12:32 PM 24.8 °F 12.9 °F 17.6 °F 74% 30.25 in 3.0 mi SSW 13.8 mph 19.6 mph N/A Snow Light Snow
12:52 PM 23.0 °F 9.6 °F 19.4 °F 86% 30.22 in 3.0 mi South 16.1 mph - N/A Snow Light Snow
1:12 PM 24.8 °F 11.9 °F 19.4 °F 80% 30.19 in 10.0 mi South 16.1 mph - N/A Snow Light Snow
1:32 PM 24.8 °F 13.4 °F 19.4 °F 80% 30.17 in 4.0 mi South 12.7 mph 19.6 mph N/A Snow Light Snow
1:52 PM 26.6 °F 15.2 °F 21.2 °F 80% 30.14 in 10.0 mi South 13.8 mph - N/A   Overcast
2:12 PM 26.6 °F 15.2 °F 21.2 °F 80% 30.12 in 10.0 mi South 13.8 mph - N/A   Overcast
2:32 PM 28.4 °F 15.8 °F 21.2 °F 74% 30.09 in 10.0 mi South 18.4 mph 24.2 mph N/A   Overcast
2:52 PM 28.4 °F 15.4 °F 21.2 °F 74% 30.08 in 10.0 mi South 19.6 mph 25.3 mph N/A   Overcast
3:12 PM 30.2 °F 18.9 °F 21.2 °F 69% 30.06 in 10.0 mi SSW 16.1 mph - N/A   Overcast
3:32 PM 30.2 °F 18.1 °F 21.2 °F 69% 30.04 in 10.0 mi SSW 18.4 mph 25.3 mph N/A   Overcast
3:53 PM 32.0 °F 19.5 °F 19.4 °F 60% 30.01 in 10.0 mi South 21.9 mph 27.6 mph N/A   Overcast
4:13 PM 32.0 °F 19.8 °F 21.2 °F 64% 30.01 in 10.0 mi SSW 20.7 mph 27.6 mph N/A   Scattered Clouds
4:33 PM 32.0 °F 19.5 °F 21.2 °F 64% 29.99 in 10.0 mi SSW 21.9 mph 27.6 mph N/A   Clear
4:53 PM 32.0 °F 20.5 °F 21.2 °F 64% 29.98 in 10.0 mi SSW 18.4 mph 29.9 mph N/A   Clear
5:13 PM 32.0 °F 19.5 °F 23.0 °F 69% 29.96 in 10.0 mi SSW 21.9 mph 29.9 mph N/A   Clear
5:33 PM 32.0 °F 20.1 °F 23.0 °F 69% 29.96 in 10.0 mi SSW 19.6 mph 28.8 mph N/A   Clear
5:53 PM 32.0 °F 19.5 °F 23.0 °F 69% 29.95 in 10.0 mi SSW 21.9 mph 27.6 mph N/A   Clear
6:13 PM 33.8 °F 22.5 °F 23.0 °F 65% 29.94 in 10.0 mi SSW 19.6 mph 31.1 mph N/A   Clear
6:33 PM 33.8 °F 22.5 °F 24.8 °F 70% 29.93 in 10.0 mi SSW 19.6 mph 27.6 mph N/A   Clear
6:54 PM 33.8 °F 21.6 °F 24.8 °F 70% 29.93 in 10.0 mi SSW 23.0 mph 29.9 mph N/A   Clear
7:14 PM 33.8 °F 22.2 °F 24.8 °F 70% 29.94 in 10.0 mi SSW 20.7 mph 26.5 mph N/A   Clear
7:34 PM 33.8 °F 23.9 °F 26.6 °F 75% 29.95 in 10.0 mi SSW 15.0 mph 21.9 mph N/A   Clear
7:54 PM 33.8 °F 23.9 °F 26.6 °F 75% 29.94 in 10.0 mi SSW 15.0 mph 20.7 mph N/A   Clear
8:14 PM 33.8 °F 23.9 °F 26.6 °F 75% 29.94 in 10.0 mi SSW 15.0 mph - N/A   Clear
8:34 PM 33.8 °F 23.5 °F 26.6 °F 75% 29.93 in 10.0 mi SSW 16.1 mph - N/A   Clear
8:54 PM 33.8 °F 22.8 °F 26.6 °F 75% 29.92 in 10.0 mi SSW 18.4 mph 27.6 mph N/A   Clear
9:14 PM 33.8 °F 21.6 °F 24.8 °F 70% 29.91 in 10.0 mi SSW 23.0 mph 28.8 mph N/A   Clear
9:34 PM 33.8 °F 21.9 °F 24.8 °F 70% 29.90 in 10.0 mi SW 21.9 mph 28.8 mph N/A   Clear
9:55 PM 33.8 °F 21.6 °F 24.8 °F 70% 29.89 in 10.0 mi SSW 23.0 mph 26.5 mph N/A   Clear
10:15 PM 33.8 °F 21.3 °F 24.8 °F 70% 29.89 in 10.0 mi SSW 24.2 mph 28.8 mph N/A   Clear
10:35 PM 33.8 °F 21.6 °F 23.0 °F 65% 29.87 in 10.0 mi SW 23.0 mph 28.8 mph N/A   Clear
10:55 PM 33.8 °F 21.3 °F 23.0 °F 65% 29.86 in 10.0 mi SSW 24.2 mph - N/A   Clear
11:15 PM 33.8 °F 21.9 °F 24.8 °F 70% 29.86 in 10.0 mi SW 21.9 mph 33.4 mph N/A   Clear
11:35 PM 33.8 °F 22.2 °F 24.8 °F 70% 29.85 in 10.0 mi SSW 20.7 mph 27.6 mph N/A   Clear
11:55 PM 33.8 °F 22.5 °F 24.8 °F 70% 29.84 in 10.0 mi SSW 19.6 mph 25.3 mph N/A   Clear